1504771200.86,57025,15.31,73338.3,2.89,-25.45,-33.61,0,*7A
1504771202.12,57026,15.31,73342.8,2.81,-28.05,-32.23,0,*7F
1504771203.34,57027,15.31,73342.0,2.71,-30.05,-31.33,0,*7A
1504771204.62,57028,15.31,73346.3,2.67,-27.23,-27.35,0,*71
1504771205.85,57029,15.31,73342.8,2.65,-25.61,-24.83,0,*78
1504771207.11,57030,15.31,73342.8,2.59,-23.69,-24.41,0,*7F
1504771208.39,57031,15.31,73340.5,2.59,-21.33,-23.85,0,*7C
1504771209.6,57032,15.31,73342.5,2.61,-18.65,-25.49,0,*7B
1504771210.84,57033,15.31,73348.5,2.59,-30.51,-37.45,0,*73
1504771212.1,57034,15.31,73344.3,2.59,-34.07,-35.83,0,*7B
1504771213.34,57035,15.31,73346.0,2.61,-33.27,-31.85,0,*76
1504771214.54,57036,15.31,73340.5,2.61,-31.79,-28.37,0,*7D
1504771215.81,57037,15.31,73336.8,2.63,-29.51,-25.49,0,*79
1504771217.03,57038,15.31,73336.3,2.67,-25.65,-24.35,0,*73
1504771218.29,57039,15.31,73334.8,2.69,-23.95,-22.93,0,*7F
1504771219.54,57040,15.31,73334.5,2.73,-22.87,-23.33,0,*73
1504771220.78,57041,15.31,73334.8,2.73,-25.65,-25.49,0,*72
1504771222.03,57042,15.31,73342.8,2.73,-26.87,-27.35,0,*77
1504771223.29,57043,15.31,73336.5,2.73,-30.01,-30.45,0,*7E
1504771224.54,57044,15.31,73338.5,2.73,-30.55,-28.97,0,*7E
1504771225.77,57045,15.31,73336.0,2.79,-31.73,-26.65,0,*73
1504771227.03,57046,15.31,73338.8,2.81,-32.45,-23.43,0,*70
1504771228.27,57047,15.31,73330.3,2.81,-29.23,-17.35,0,*7D
1504771229.5,57048,15.31,73324.0,2.87,-24.47,-13.37,0,*7D
1504771230.74,57049,15.31,73320.5,2.87,-19.23,-11.41,0,*73
1504771232.0,57050,15.31,73322.3,2.93,-15.01,-11.67,0,*76
1504771233.25,57051,15.31,73320.8,3.01,-12.65,-12.75,0,*78
1504771234.49,57052,15.31,73318.5,3.07,-12.89,-15.25,0,*7D
1504771235.71,57053,15.31,73322.0,3.11,-15.67,-18.07,0,*71
1504771236.95,57054,15.31,73326.0,3.15,-17.69,-18.89,0,*78
1504771238.21,57055,15.31,73324.3,3.15,-19.81,-18.89,0,*71
1504771239.43,57056,15.31,73330.8,3.17,-18.83,-16.65,0,*7F
1504771240.67,57057,15.31,73332.3,3.19,-19.13,-16.59,0,*77
1504771241.89,57058,15.31,73328.5,3.17,-20.05,-17.55,0,*76
1504771243.11,57059,15.31,73330.3,3.17,-17.03,-13.47,0,*72
1504771244.37,57060,15.31,73330.3,3.19,-14.93,-11.67,0,*7C
1504771245.62,57061,15.31,73334.8,3.19,-12.57,-11.15,0,*76
1504771246.84,57062,15.31,73336.3,3.25,-10.49,-11.67,0,*72
1504771248.1,57063,15.31,73346.0,3.29,-10.79,-16.17,0,*7C
1504771249.37,57064,15.31,73348.5,3.27,-13.29,-23.33,0,*73
1504771250.6,57065,15.31,73356.5,3.29,-15.49,-26.71,0,*7F
1504771251.84,57066,15.31,73360.5,3.31,-18.83,-29.73,0,*73
1504771253.08,57067,15.31,73364.8,3.29,-26.55,-36.01,0,*76
1504771254.31,57068,15.31,73364.3,3.21,-30.77,-37.87,0,*79
1504771255.53,57069,15.31,73366.0,3.17,-32.39,-38.11,0,*75
1504771256.76,57070,15.31,73358.3,3.13,-33.37,-38.79,0,*78
1504771258.0,57071,15.31,73358.3,3.09,-33.89,-37.93,0,*7C
1504771259.28,57072,15.31,73350.5,3.11,-34.31,-37.51,0,*7C
1504771260.53,57073,15.31,73348.0,3.07,-36.19,-38.91,0,*71
1504771261.73,57074,15.31,73344.8,3.05,-36.19,-38.17,0,*7A
1504771262.94,57075,15.31,73332.3,3.01,-35.01,-36.73,0,*79
1504771264.19,57076,15.31,73328.5,2.97,-35.23,-36.97,0,*7E
1504771265.41,57077,15.31,73322.8,2.97,-33.55,-34.71,0,*72
1504771266.69,57078,15.31,73330.3,2.97,-32.85,-33.73,0,*74
1504771267.89,57079,15.31,73330.0,3.01,-33.21,-33.95,0,*7C
1504771269.12,57080,15.31,73320.8,3.01,-32.97,-33.37,0,*7E
1504771270.34,57081,15.31,73316.8,3.01,-31.45,-31.57,0,*77
1504771271.57,57082,15.31,73314.0,3.07,-31.45,-31.33,0,*70
1504771272.82,57083,15.31,73312.3,3.09,-30.73,-30.05,0,*7F
1504771274.08,57084,15.31,73314.0,3.15,-30.01,-28.75,0,*7E
1504771275.33,57085,15.31,73314.5,3.15,-29.95,-28.47,0,*7B
1504771276.57,57086,15.31,73318.5,3.21,-30.51,-29.01,0,*7C
1504771277.79,57087,15.31,73314.8,3.25,-30.11,-28.59,0,*71
1504771279.02,57088,15.31,73312.5,3.25,-30.27,-28.91,0,*7F
1504771280.25,57089,15.31,73320.3,3.29,-29.95,-28.91,0,*73
1504771281.52,57090,15.31,73334.5,3.31,-30.05,-30.05,0,*77
1504771282.81,57091,15.31,73334.3,3.33,-29.01,-29.89,0,*74
1504771284.05,57092,15.31,73336.5,3.37,-28.63,-29.79,0,*79
1504771285.29,57093,15.31,73338.5,3.39,-28.91,-29.45,0,*74
1504771286.56,57094,15.31,73340.5,3.41,-28.75,-28.75,0,*74
1504771287.79,57095,15.31,73342.3,3.43,-27.83,-28.15,0,*77
1504771289.04,57096,15.31,73344.8,3.49,-27.23,-27.55,0,*7F
1504771290.24,57097,15.31,73350.3,3.51,-26.87,-27.93,0,*72
1504771291.47,57098,15.31,73350.3,3.55,-27.35,-29.57,0,*77
1504771292.69,57099,15.31,73348.8,3.55,-30.01,-33.03,0,*7D
1504771293.9,57100,15.31,73356.3,3.55,-29.57,-32.35,0,*73
1504771295.14,57101,15.31,73356.3,3.57,-29.83,-32.51,0,*7B
1504771296.37,57102,15.31,73354.8,3.59,-31.05,-33.31,0,*76
1504771297.62,57103,15.31,73354.5,3.57,-32.85,-34.71,0,*71
1504771298.85,57104,15.31,73346.3,3.57,-32.35,-33.67,0,*7D
1504771300.07,57105,15.31,73346.0,3.59,-33.31,-34.41,0,*74
1504771301.28,57106,15.31,73342.3,3.59,-33.15,-34.31,0,*76
1504771302.53,57107,15.31,73342.8,3.61,-33.83,-34.83,0,*7A
1504771303.75,57108,15.31,73342.8,3.61,-32.23,-33.15,0,*76
1504771305.0,57109,15.31,73342.8,3.63,-31.57,-32.29,0,*7B
1504771306.25,57110,15.31,73340.3,3.63,-32.45,-33.49,0,*74
1504771307.47,57111,15.31,73346.5,3.63,-32.29,-33.15,0,*76
1504771308.72,57112,15.31,73348.3,3.63,-31.85,-32.63,0,*70
1504771309.95,57113,15.31,73352.0,3.65,-33.61,-34.71,0,*7A
1504771311.19,57114,15.31,73346.3,3.65,-34.53,-35.89,0,*7D
1504771312.39,57115,15.31,73340.5,3.65,-35.13,-36.19,0,*73
1504771313.59,57116,15.31,73336.3,3.65,-35.59,-36.73,0,*72
1504771314.85,57117,15.31,73334.5,3.63,-32.07,-32.97,0,*77
1504771316.07,57118,15.31,73342.8,3.63,-31.23,-32.13,0,*71
1504771317.33,57119,15.31,73346.8,3.65,-33.43,-34.53,0,*70
1504771318.54,57120,15.31,73344.0,3.65,-36.01,-37.15,0,*78
1504771319.78,57121,15.31,73340.3,3.61,-34.59,-35.77,0,*74
1504771321.02,57122,15.31,73334.5,3.63,-32.97,-33.89,0,*76
1504771322.27,57123,15.31,73334.3,3.63,-32.45,-33.49,0,*74
1504771323.5,57124,15.31,73332.5,3.63,-32.57,-33.73,0,*79
1504771324.7,57125,15.31,73342.0,3.65,-33.83,-34.89,0,*74
1504771325.94,57126,15.31,73346.0,3.65,-34.31,-35.47,0,*7A
1504771327.18,57127,15.38,73344.8,3.67,-34.77,-35.89,0,*79
1504771328.38,57128,15.31,73344.3,3.63,-35.29,-36.31,0,*78
1504771329.65,57129,15.31,73344.3,3.61,-34.77,-35.95,0,*7C
1504771330.89,57130,15.31,73340.8,3.61,-35.71,-36.61,0,*7B
1504771332.13,57131,15.31,73338.0,3.59,-35.95,-36.67,0,*7D
1504771333.38,57132,15.31,73332.8,3.57,-37.51,-38.17,0,*73
1504771334.66,57133,15.31,73340.0,3.53,-37.63,-39.15,0,*74
1504771335.94,57134,15.31,73336.3,3.49,-38.23,-38.29,0,*7D
1504771337.18,57135,15.31,73336.3,3.43,-36.07,-35.95,0,*74
1504771338.38,57136,15.31,73340.5,3.43,-35.29,-34.89,0,*74
1504771339.66,57137,15.31,73346.5,3.41,-33.89,-33.89,0,*7C
1504771340.88,57138,15.31,73342.8,3.39,-33.49,-33.15,0,*75
1504771342.17,57139,15.38,73344.8,3.41,-34.19,-32.75,0,*7E
1504771343.42,57140,15.31,73346.8,3.39,-33.43,-32.63,0,*70
1504771344.64,57141,15.38,73346.5,3.39,-32.63,-31.67,0,*75
1504771345.9,57142,15.38,73344.0,3.39,-31.51,-31.91,0,*7D
1504771347.12,57143,15.38,73340.3,3.39,-31.91,-33.15,0,*7E
1504771348.35,57144,15.31,73340.0,3.35,-32.13,-33.89,0,*79
1504771349.56,57145,15.31,73340.0,3.35,-33.21,-35.01,0,*7E
1504771350.77,57146,15.31,73346.3,3.35,-34.89,-36.55,0,*7A
1504771352.02,57147,15.38,73346.0,3.33,-36.13,-36.73,0,*78
1504771353.28,57148,15.38,73342.3,3.31,-34.95,-35.01,0,*7F
1504771354.54,57149,15.31,73342.8,3.33,-35.83,-35.47,0,*78
1504771355.74,57150,15.31,73342.3,3.29,-35.29,-35.01,0,*79
1504771356.95,57151,15.38,73346.5,3.29,-35.29,-34.89,0,*79
1504771358.19,57152,15.31,73342.5,3.27,-34.83,-34.25,0,*73
1504771359.43,57153,15.31,73336.3,3.29,-34.07,-33.27,0,*75
1504771360.63,57154,15.31,73328.8,3.29,-34.07,-33.15,0,*73
1504771361.89,57155,15.31,73334.3,3.27,-34.31,-32.39,0,*76
1504771363.15,57156,15.31,73336.8,3.27,-32.29,-29.35,0,*7C
1504771364.41,57157,15.31,73336.5,3.27,-30.27,-28.63,0,*73
1504771365.63,57158,15.31,73338.3,3.27,-29.95,-29.95,0,*75
1504771366.88,57159,15.31,73336.5,3.27,-30.51,-30.45,0,*71
1504771368.08,57160,15.31,73336.3,3.25,-32.69,-31.79,0,*7E
1504771369.31,57161,15.31,73338.5,3.21,-32.29,-31.45,0,*70
1504771370.56,57162,15.38,73348.0,3.21,-30.77,-31.11,0,*7B
1504771371.8,57163,15.38,73344.0,3.19,-30.51,-32.35,0,*70
1504771373.08,57164,15.31,73336.8,3.19,-32.63,-33.77,0,*73
1504771374.32,57165,15.38,73344.3,3.19,-33.89,-32.91,0,*7E
1504771375.6,57166,15.31,73332.0,3.19,-29.89,-27.35,0,*7C
1504771376.88,57167,15.38,73332.5,3.19,-26.33,-23.53,0,*77
1504771378.12,57168,15.31,73334.0,3.19,-25.45,-26.61,0,*7E
1504771379.39,57169,15.31,73336.0,3.19,-30.89,-30.05,0,*7E
1504771380.62,57170,15.31,73338.3,3.17,-33.31,-30.23,0,*7C
1504771381.85,57171,15.38,73340.8,3.13,-36.07,-31.23,0,*78
1504771383.08,57172,15.38,73340.5,3.09,-34.53,-26.65,0,*77
1504771384.31,57173,15.38,73340.0,3.05,-34.59,-24.71,0,*77
1504771385.54,57174,15.31,73342.3,3.05,-33.61,-21.17,0,*79
1504771386.79,57175,15.38,73340.8,3.01,-32.45,-19.41,0,*73
1504771388.02,57176,15.31,73340.3,2.97,-27.51,-15.11,0,*76
1504771389.24,57177,15.38,73346.3,2.95,-22.21,-11.45,0,*72
1504771390.45,57178,15.31,73342.0,2.95,-18.41,-10.49,0,*7F
1504771391.67,57179,15.38,73346.8,2.93,-15.71,-11.15,0,*7E
1504771392.89,57180,15.38,73348.3,2.93,-12.89,-10.31,0,*7F
1504771394.09,57181,15.31,73346.3,2.91,-10.35,-8.75,0,*40
1504771395.35,57182,15.31,73346.5,2.89,-9.45,-8.81,0,*7E
1504771396.59,57183,15.31,73340.3,2.91,-8.51,-8.81,0,*72
1504771397.79,57184,15.31,73340.8,2.91,-8.85,-9.01,0,*75
1504771398.98,57185,15.38,73344.5,2.91,-9.67,-8.75,0,*7B
1504771400.19,57186,15.38,73348.3,2.91,-9.23,-7.91,0,*7D
1504771401.43,57187,15.31,73344.0,2.93,-9.19,-7.91,0,*77
1504771402.67,57188,15.38,73348.3,2.93,-10.63,-8.67,0,*4B
1504771403.88,57189,15.38,73348.3,2.95,-10.89,-9.11,0,*48
1504771405.13,57190,15.38,73344.8,2.93,-11.41,-9.41,0,*46
1504771406.38,57191,15.38,73342.3,2.93,-10.19,-7.43,0,*47
1504771407.61,57192,15.31,73342.8,2.93,-7.99,-5.35,0,*79
1504771408.83,57193,15.31,73340.5,2.95,-8.29,-5.93,0,*76
1504771410.03,57194,15.38,73340.3,2.95,-8.85,-6.31,0,*7C
1504771411.24,57195,15.38,73346.8,2.97,-6.01,-4.05,0,*78
1504771412.45,57196,15.38,73338.5,3.01,-5.11,-4.17,0,*74
1504771413.66,57197,15.31,73336.3,3.01,-6.89,-5.77,0,*70
1504771414.86,57198,15.31,73338.0,3.01,-5.97,-4.65,0,*71
1504771416.08,57199,15.38,73344.3,3.05,-5.69,-4.13,0,*74
1504771417.31,57200,15.38,73342.5,3.07,-4.45,-2.71,0,*78
1504771418.56,57201,15.38,73346.0,3.07,-4.33,-2.67,0,*7F
1504771419.8,57202,15.38,73342.8,3.11,-3.43,-1.67,0,*78
1504771421.0,57203,15.38,73346.8,3.15,-2.23,-0.61,0,*4D
1504771422.21,57204,15.38,73346.3,3.19,-1.79,-0.41,0,*48
1504771423.46,57205,15.38,73346.5,3.25,-2.63,-1.39,0,*70
1504771424.65,57206,15.38,73344.0,3.25,-3.27,-2.35,0,*7D
1504771425.86,57207,15.31,73340.5,3.25,-3.47,-2.83,0,*77
1504771427.09,57208,15.38,73344.8,3.25,-2.75,-2.59,0,*7F
1504771428.36,57209,15.38,73340.3,3.27,-1.95,-2.07,0,*7A
1504771429.57,57210,15.38,73340.8,3.29,-2.67,-3.07,0,*73
1504771430.79,57211,15.38,73344.5,3.29,-4.25,-4.77,0,*72
1504771432.01,57212,15.38,73338.8,3.29,-4.21,-4.77,0,*75
1504771433.23,57213,15.38,73342.8,3.31,-2.95,-3.83,0,*78
1504771434.45,57214,15.38,73340.5,3.27,-3.35,-4.25,0,*78
1504771435.67,57215,15.38,73336.8,3.29,-4.13,-5.15,0,*76
1504771436.9,57216,15.38,73336.5,3.27,-4.69,-5.47,0,*71
1504771438.14,57217,15.38,73332.5,3.29,-5.15,-5.89,0,*76
1504771439.41,57218,15.38,73332.8,3.27,-5.07,-5.69,0,*7A
1504771440.64,57219,15.38,73328.3,3.27,-4.81,-5.39,0,*71
1504771441.84,57220,15.38,73320.0,3.29,-4.09,-4.61,0,*79
1504771443.05,57221,15.38,73326.5,3.29,-4.49,-4.73,0,*7F
1504771444.24,57222,15.38,73332.8,3.29,-4.57,-4.61,0,*70
1504771445.44,57223,15.38,73332.8,3.29,-4.13,-4.09,0,*7F
1504771446.68,57224,15.38,73332.3,3.33,-3.91,-3.51,0,*74
1504771447.91,57225,15.38,73332.5,3.37,-3.91,-3.15,0,*71
1504771449.12,57226,15.38,73332.8,3.37,-4.37,-3.11,0,*7D
1504771450.31,57227,15.38,73336.8,3.39,-3.87,-2.35,0,*79
1504771451.58,57228,15.38,73338.0,3.41,-3.43,-1.47,0,*77
1504771452.82,57229,15.38,73336.8,3.45,-3.19,-1.13,0,*7C
1504771454.03,57230,15.38,73332.3,3.51,-2.87,-0.85,0,*49
1504771455.24,57231,15.38,73332.0,3.51,-2.59,-0.81,0,*4F
1504771456.45,57232,15.38,73330.8,3.55,-2.43,-0.93,0,*40
1504771457.68,57233,15.38,73328.5,3.57,-1.91,-0.65,0,*46
1504771458.89,57234,15.31,73332.0,3.59,-1.71,-0.97,0,*4C
1504771460.12,57235,15.38,73342.3,3.61,-1.59,-1.13,0,*71
1504771461.33,57236,15.38,73346.0,3.63,-0.97,-0.81,0,*79
1504771462.56,57237,15.38,73340.5,3.67,-2.67,-2.91,0,*72
1504771463.78,57238,15.38,73334.0,3.65,-3.31,-3.67,0,*75
1504771465.0,57239,15.38,73332.5,3.65,-2.95,-3.59,0,*76
1504771466.23,57240,15.38,73334.0,3.65,-3.43,-4.21,0,*7A
1504771467.44,57241,15.38,73334.8,3.63,-3.71,-4.41,0,*7A
1504771468.66,57242,15.38,73332.0,3.61,-3.31,-3.83,0,*76
1504771469.86,57243,15.38,73328.8,3.63,-2.99,-3.43,0,*7A
1504771471.08,57244,15.38,73332.0,3.61,-4.13,-4.37,0,*7F
1504771472.3,57245,15.38,73326.5,3.61,-3.83,-3.75,0,*71
1504771473.54,57246,15.38,73322.8,3.61,-3.43,-3.11,0,*7C
1504771474.75,57247,15.38,73322.8,3.61,-4.61,-4.41,0,*78
1504771476.0,57248,15.38,73328.8,3.59,-5.03,-5.03,0,*7E
1504771477.23,57249,15.38,73326.8,3.57,-3.95,-4.09,0,*73
1504771478.42,57250,15.38,73324.5,3.55,-3.31,-3.79,0,*77
1504771479.66,57251,15.38,73326.0,3.57,-4.45,-5.11,0,*78
1504771480.87,57252,15.38,73322.8,3.55,-3.83,-4.61,0,*72
1504771482.41,57253,15.38,73312.0,3.53,-3.11,-3.87,0,*71
1504771483.33,57254,15.38,73312.5,3.53,-3.71,-4.49,0,*75
1504771484.53,57255,15.38,73314.5,3.51,-3.75,-4.53,0,*79
1504771485.73,57256,15.38,73308.0,3.51,-3.83,-4.41,0,*70
1504771486.95,57257,15.38,73312.8,3.51,-3.71,-4.33,0,*79
1504771488.15,57258,15.38,73324.5,3.51,-3.35,-3.87,0,*7E
1504771489.4,57259,15.38,73338.0,3.49,-3.59,-4.13,0,*76
1504771490.65,57260,15.38,73338.8,3.51,-5.03,-5.31,0,*7D
1504771491.84,57261,15.38,73332.5,3.51,-4.41,-4.61,0,*7F
1504771493.09,57262,15.38,73336.0,3.49,-4.41,-4.69,0,*7D
1504771494.3,57263,15.38,73338.8,3.45,-4.45,-5.35,0,*7C
1504771495.54,57264,15.38,73332.3,3.45,-5.23,-6.77,0,*7F
1504771496.73,57265,15.38,73330.8,3.43,-6.81,-9.19,0,*74
1504771497.94,57266,15.38,73326.8,3.39,-7.15,-10.19,0,*4E
1504771499.19,57267,15.38,73330.8,3.39,-6.93,-10.63,0,*4D
1504771500.43,57268,15.38,73334.0,3.35,-7.31,-11.51,0,*47
1504771501.68,57269,15.38,73332.0,3.31,-7.35,-12.29,0,*4A
1504771502.95,57270,15.38,73334.5,3.31,-9.11,-15.01,0,*47
1504771504.2,57271,15.38,73332.8,3.29,-9.83,-16.17,0,*40
1504771505.43,57272,15.38,73342.0,3.29,-12.25,-18.55,0,*7D
1504771506.65,57273,15.38,73342.0,3.25,-13.01,-18.65,0,*74
1504771507.88,57274,15.38,73346.3,3.21,-15.39,-20.63,0,*77
1504771509.12,57275,15.38,73346.5,3.19,-15.21,-19.75,0,*79
1504771510.34,57276,15.38,73348.8,3.17,-14.89,-19.31,0,*77
1504771511.56,57277,15.38,73352.5,3.17,-14.97,-19.75,0,*79
1504771512.79,57278,15.38,73356.0,3.13,-15.35,-20.93,0,*79
1504771514.01,57279,15.38,73358.3,3.15,-15.53,-19.95,0,*72
1504771515.24,57280,15.38,73358.5,3.15,-14.29,-17.83,0,*71
1504771516.49,57281,15.38,73358.8,3.17,-13.01,-17.11,0,*74
1504771517.71,57282,15.38,73358.3,3.19,-12.93,-18.83,0,*77
1504771518.96,57283,15.38,73356.0,3.19,-13.65,-18.93,0,*7F
1504771520.18,57284,15.38,73356.0,3.25,-14.01,-17.73,0,*73
1504771521.44,57285,15.38,73348.3,3.21,-14.01,-17.21,0,*71
1504771522.67,57286,15.38,73350.3,3.25,-14.01,-16.83,0,*7F
1504771523.92,57287,15.38,73350.8,3.25,-13.87,-16.23,0,*7D
1504771525.19,57288,15.38,73348.0,3.27,-12.61,-14.51,0,*7E
1504771526.42,57289,15.38,73350.3,3.29,-11.19,-12.71,0,*79
1504771527.66,57290,15.38,73348.5,3.31,-9.93,-11.63,0,*43
1504771528.88,57291,15.38,73350.5,3.33,-9.93,-12.39,0,*4C
1504771530.11,57292,15.38,73348.3,3.35,-11.89,-15.67,0,*77
1504771531.35,57293,15.38,73348.5,3.39,-14.47,-20.29,0,*71
1504771532.55,57294,15.38,73358.5,3.39,-18.17,-23.79,0,*79
1504771533.74,57295,15.38,73362.8,3.39,-19.03,-24.57,0,*77
1504771534.97,57296,15.38,73372.3,3.39,-19.95,-26.55,0,*7B
1504771536.2,57297,15.38,73372.8,3.41,-20.93,-28.37,0,*73
1504771537.43,57298,15.38,73374.8,3.41,-21.73,-29.61,0,*71
1504771538.68,57299,15.38,73378.3,3.43,-23.69,-30.89,0,*75
1504771539.94,57300,15.38,73376.0,3.49,-27.23,-33.15,0,*72
1504771541.22,57301,15.38,73364.3,3.49,-31.39,-36.49,0,*73
1504771542.45,57302,15.38,73368.5,3.43,-36.73,-40.85,0,*72
1504771543.7,57303,15.38,73370.5,3.41,-32.57,-35.65,0,*7F
1504771544.98,57304,15.38,73370.5,3.41,-33.27,-35.53,0,*7B
1504771546.22,57305,15.38,73374.0,3.39,-33.31,-35.01,0,*75
1504771547.5,57306,15.38,73374.3,3.41,-33.43,-34.01,0,*7D
1504771548.72,57307,15.38,73332.3,3.39,-32.91,-33.31,0,*79
1504771549.96,57308,15.38,73328.5,3.41,-29.57,-29.57,0,*72
1504771551.19,57309,15.38,73330.8,3.45,-28.69,-28.53,0,*7E
1504771552.4,57310,15.38,73328.0,3.51,-29.23,-28.85,0,*77
1504771553.63,57311,15.38,73330.5,3.53,-28.69,-27.93,0,*73
1504771554.86,57312,15.38,73328.0,3.55,-29.83,-28.21,0,*75
1504771556.11,57313,15.38,73334.3,3.57,-28.47,-26.65,0,*71
1504771557.33,57314,15.38,73336.0,3.59,-26.07,-24.67,0,*72
1504771558.54,57315,15.38,73336.0,3.63,-26.03,-24.61,0,*78
1504771559.81,57316,15.38,73342.5,3.71,-26.29,-24.15,0,*73
1504771561.06,57317,15.38,73346.0,3.71,-26.13,-22.83,0,*72
1504771562.27,57318,15.38,73350.5,3.73,-23.09,-20.93,0,*72
1504771563.5,57319,15.38,73352.5,3.81,-23.03,-21.17,0,*79
1504771564.73,57320,15.38,73352.8,3.81,-22.73,-20.63,0,*77
1504771565.95,57321,15.38,73348.8,3.81,-24.47,-19.23,0,*79
1504771567.16,57322,15.38,73344.3,3.85,-20.89,-17.35,0,*71
1504771568.39,57323,15.38,73348.5,3.89,-17.83,-16.65,0,*76
1504771569.65,57324,15.38,73346.8,3.89,-17.97,-17.63,0,*73
1504771570.92,57325,15.38,73348.0,3.95,-18.93,-19.23,0,*7E
1504771572.18,57326,15.38,73352.3,3.97,-19.81,-18.89,0,*7C
1504771573.38,57327,15.38,73358.8,3.99,-21.09,-18.17,0,*7F
1504771574.63,57328,15.38,73356.5,4.03,-22.21,-17.21,0,*77
1504771575.88,57329,15.38,73354.0,4.03,-20.83,-14.97,0,*72
1504771577.14,57330,15.38,73354.0,4.05,-19.51,-15.21,0,*75
1504771578.37,57331,15.38,73352.8,4.05,-17.83,-16.83,0,*7E
1504771579.59,57332,15.38,73346.3,4.03,-17.11,-18.41,0,*70
1504771580.84,57333,15.38,73340.0,4.01,-17.97,-16.93,0,*7C
1504771582.08,57334,15.38,73340.3,4.01,-18.25,-15.75,0,*76
1504771583.33,57335,15.38,73336.8,4.01,-14.83,-13.69,0,*7C
1504771584.58,57336,15.38,73342.5,4.03,-14.83,-14.79,0,*7B
1504771585.79,57337,15.38,73346.5,4.07,-14.89,-14.65,0,*79
1504771587.01,57338,15.38,73352.0,4.05,-14.65,-14.61,0,*72
1504771588.24,57339,15.38,73348.8,4.09,-15.29,-16.45,0,*72
1504771589.49,57340,15.38,73344.8,4.09,-16.75,-17.55,0,*76
1504771590.72,57341,15.38,73340.5,4.09,-16.75,-16.45,0,*77
1504771591.98,57342,15.38,73340.5,4.11,-17.41,-17.21,0,*78
1504771593.23,57343,15.38,73342.8,4.11,-16.09,-17.25,0,*70
1504771594.42,57344,15.38,73346.0,4.19,-15.67,-18.83,0,*77
1504771595.63,57345,15.38,73346.8,4.19,-15.75,-20.63,0,*70
1504771596.83,57346,15.38,73352.8,4.23,-17.87,-23.43,0,*74
1504771598.08,57347,15.38,73352.8,4.25,-21.03,-27.03,0,*7A
1504771599.34,57348,15.38,73354.8,4.23,-24.41,-30.51,0,*71
1504771600.57,57349,15.38,73352.8,4.23,-25.71,-30.27,0,*73
1504771601.76,57350,15.38,73356.8,4.19,-25.23,-30.11,0,*70
1504771602.98,57351,15.38,73362.0,4.19,-25.87,-31.57,0,*7C
1504771604.2,57352,15.38,73368.3,4.19,-30.89,-35.59,0,*7F
1504771605.45,57353,15.38,73370.8,4.19,-31.61,-35.07,0,*72
1504771606.65,57354,15.38,73362.5,4.19,-34.25,-36.31,0,*76
1504771607.94,57355,15.38,73354.3,4.13,-34.01,-35.83,0,*71
1504771609.17,57356,15.38,73356.0,4.13,-33.83,-35.47,0,*77
1504771610.45,57357,15.38,73360.0,4.13,-33.27,-34.65,0,*79
1504771611.7,57358,15.38,73358.3,4.11,-33.27,-34.53,0,*71
1504771612.95,57359,15.38,73352.5,4.11,-32.75,-33.73,0,*73
1504771614.2,57360,15.38,73342.8,4.13,-30.95,-31.67,0,*70
1504771615.45,57361,15.38,73334.5,4.17,-30.83,-31.57,0,*71
1504771616.71,57362,15.38,73326.8,4.17,-31.61,-32.39,0,*74
1504771617.99,57363,15.38,73320.3,4.21,-31.73,-32.19,0,*71
1504771619.25,57364,15.38,73318.3,4.21,-30.67,-31.23,0,*78
1504771620.48,57365,15.38,73326.3,4.21,-29.45,-29.61,0,*7E
1504771621.7,57366,15.38,73322.8,4.27,-29.83,-29.73,0,*72
1504771623.06,57367,15.38,73320.3,4.27,-28.31,-28.47,0,*7D
1504771624.2,57368,15.38,73318.5,4.31,-28.05,-27.35,0,*78
1504771625.43,57369,15.38,73298.8,4.33,-27.89,-26.93,0,*7D
1504771626.68,57370,15.38,73292.8,4.35,-27.51,-27.61,0,*7A
1504771627.95,57371,15.38,73316.0,4.35,-27.45,-28.79,0,*78
1504771629.19,57372,15.38,73310.3,4.35,-28.47,-29.83,0,*72
1504771630.42,57373,15.38,73312.0,4.35,-28.85,-29.23,0,*77
1504771631.68,57374,15.38,73336.5,4.39,-28.47,-28.47,0,*71
1504771632.95,57375,15.38,73342.3,4.39,-30.61,-28.79,0,*70
1504771634.17,57376,15.38,73344.5,4.39,-33.21,-29.57,0,*79
1504771635.42,57377,15.38,73318.5,4.35,-32.85,-27.89,0,*76
1504771636.67,57378,15.38,73310.0,4.33,-28.75,-23.29,0,*75
1504771637.92,57379,15.38,73318.0,4.35,-26.87,-22.47,0,*78
1504771639.2,57380,15.38,73318.8,4.35,-25.03,-20.99,0,*70
1504771640.45,57381,15.38,73320.3,4.39,-25.81,-20.05,0,*72
1504771641.7,57382,15.38,73322.0,4.43,-26.07,-17.21,0,*73
1504771642.9,57383,15.38,73332.5,4.45,-26.23,-14.65,0,*71
1504771644.09,57384,15.38,73328.5,4.45,-25.19,-12.29,0,*72
1504771645.32,57385,15.38,73332.0,4.45,-19.71,-6.97,0,*42
1504771646.58,57386,15.38,73346.5,4.47,-14.97,-4.85,0,*47
1504771647.8,57387,15.38,73338.3,4.49,-15.39,-8.67,0,*4D
1504771649.01,57388,15.38,73330.0,4.45,-12.35,-8.59,0,*48
1504771650.23,57389,15.38,73332.0,4.45,-8.89,-7.91,0,*7E
1504771651.46,57390,15.44,73334.5,4.41,-7.31,-8.81,0,*70
1504771652.71,57391,15.44,73328.0,4.43,-7.83,-11.07,0,*4C
1504771653.95,57392,15.38,73328.3,4.41,-8.81,-12.61,0,*43
1504771655.15,57393,15.38,73332.3,4.41,-10.31,-13.51,0,*72
1504771656.35,57394,15.38,73318.0,4.41,-12.47,-15.11,0,*74
1504771657.61,57395,15.38,73306.0,4.35,-14.51,-17.69,0,*7A
1504771658.89,57396,15.38,73316.0,4.31,-14.55,-19.23,0,*79
1504771660.08,57397,15.38,73316.5,4.29,-15.11,-21.39,0,*70
1504771661.28,57398,15.38,73328.0,4.27,-15.29,-20.73,0,*75
1504771662.51,57399,15.38,73338.8,4.27,-17.45,-21.43,0,*7E
1504771663.71,57400,15.44,73344.8,4.27,-18.49,-23.09,0,*76
1504771664.95,57401,15.38,73342.8,4.27,-21.57,-23.49,0,*76
1504771666.23,57402,15.44,73344.8,4.25,-26.81,-25.03,0,*73
1504771667.42,57403,15.38,73346.0,4.19,-27.13,-22.83,0,*78
1504771668.68,57404,15.38,73340.8,4.19,-24.83,-20.35,0,*7A
1504771669.9,57405,15.38,73340.0,4.19,-22.47,-18.73,0,*7C
1504771671.12,57406,15.38,73342.0,4.19,-20.15,-17.73,0,*75
1504771672.35,57407,15.38,73342.0,4.19,-18.31,-15.67,0,*7E
1504771673.63,57408,15.38,73350.3,4.21,-19.61,-16.65,0,*7F
1504771674.85,57409,15.44,73352.5,4.21,-19.03,-17.73,0,*7C
1504771676.08,57410,15.38,73346.8,4.21,-20.39,-20.59,0,*7B
1504771677.36,57411,15.38,73344.5,4.13,-22.21,-21.83,0,*76
1504771678.61,57412,15.38,73342.5,4.09,-24.67,-24.35,0,*72
1504771679.84,57413,15.44,73336.3,4.05,-24.77,-23.75,0,*7D
1504771681.11,57414,15.38,73336.3,4.01,-24.67,-23.29,0,*76
1504771682.31,57415,15.38,73340.0,3.99,-20.09,-19.75,0,*7D
1504771683.56,57416,15.44,73340.8,3.97,-18.21,-19.23,0,*72
1504771684.77,57417,15.38,73336.0,4.03,-16.41,-18.07,0,*76
1504771686.0,57418,15.38,73330.0,4.07,-17.93,-19.99,0,*75
1504771687.26,57419,15.44,73332.5,4.05,-18.93,-20.59,0,*7F
1504771688.54,57420,15.44,73324.5,4.05,-19.85,-22.17,0,*7B
1504771689.75,57421,15.38,73324.8,4.07,-18.07,-20.29,0,*7C
1504771690.95,57422,15.38,73328.3,4.07,-17.87,-19.51,0,*7D
1504771692.2,57423,15.38,73328.5,4.11,-15.85,-17.63,0,*74
1504771693.42,57424,15.44,73332.5,4.11,-15.01,-18.69,0,*7A
1504771694.69,57425,15.38,73332.8,4.13,-16.17,-21.57,0,*7A
1504771695.91,57426,15.44,73336.3,4.13,-18.11,-24.97,0,*78
1504771697.17,57427,15.38,73334.3,4.17,-19.41,-27.29,0,*7F
1504771698.42,57428,15.38,73336.5,4.13,-20.99,-29.67,0,*7F
1504771699.7,57429,15.38,73344.5,4.13,-22.21,-30.95,0,*7A
1504771700.93,57430,15.38,73344.0,4.11,-23.75,-31.91,0,*75
1504771702.19,57431,15.38,73336.5,4.09,-26.81,-33.67,0,*78
1504771703.45,57432,15.38,73336.0,4.07,-29.01,-34.01,0,*75
1504771704.73,57433,15.44,73358.5,4.05,-32.45,-35.53,0,*7A
1504771705.99,57434,15.44,73362.0,4.03,-34.83,-35.95,0,*7D